Location: Detroit
(42.3310°N, 83.0460°W)
Time: 08:22:33
(UTC-04:00)

Explorer 11/Cluster Stage 4 - Pass Details

Date: 14 February 2023
Orbit: 466 x 1241 km, 28.8° (Epoch: 02 April)

Event Time Altitude Azimuth Distance (km) Brightness Sun altitude
Exits shadow 04:18:53 15° 154° (SSE) 2,490 9.2 -35.7°
Drops below altitude 10° 04:20:34 10° 143° (SE) 2,892 9.6 -35.4°
Sets 04:24:18 0° 129° (SE) 3,972 10.6 -34.8°
